OBJECT K

基本信息
目录编号:
49404
目录名称:
OBJECT K
国际标识:
2021-102K
轨道中心:
EARTH
物体状态:
在轨
发射日期:
2021-11-09 UTC
国别:
日本 (JP)
轨道信息
数据来源: 国际轨道数据 AOE轨道数据
星历时间: 2026-07-14T00:30:16+0800 2026-07-08T23:00:00+0800
半长轴: 6876.728km 6876.827km
偏心率: 0.002001 0.0019871
轨道倾角: 97.324° 97.324°
近地点辐角: 121.309° 137.740°
升交点赤经: 235.223° 230.289°
平近点角: 239.011° 213.808°
近地点: 484.83km 485.025km
远地点: 512.352km 512.355km
周期: 94.587分钟 94.589分钟
每日圈数: 15.224044 15.223715
详细信息
发射场:
KSCUT
轨道高度:
LEO
数据来源:
AOE Working Group
参考系:
TEME
时间系统:
UTC
历元类型:
SGP4
2D轨道图
3D轨道图
轨道高度分析图
轨道倾角分析图
轨道综合分析图
查看轨道综合分析图